Tracking 28895 objects as of 29-May-2024
HD Live streaming from Space Station
objects crossing your sky now

ICEYE-X7

Track ICEYE-X7 now!
10-day predictions


NORAD ID: 46496
Int'l Code: 2020-068L
Perigee: 538.3 km
Apogee: 557.6 km
Inclination: 97.7 °
Period: 95.5 minutes
Semi major axis: 6918 km
RCS: Unknown
Launch date: September 28, 2020
Source: (FIN)
Launch site: PLESETSK MISSILE AND SPACE COMPLEX (PKMTR)
Your satellite tracking list
Your tracking list is empty




NASA's NSSDC Master Catalog

Two Line Element Set (TLE):
1 46496U 20068L   24149.82263226  .00008147  00000-0  52533-3 0  9997
2 46496  97.6738  88.4639 0013942  53.0892 307.1611 15.08488072200919
Source of the keplerian elements: AFSPC